Zurück zum Katalog

SL-12 R/B

AUX MOTOR

AktivHEO
NORAD 19537·ROCKET BODY·🇷🇺 Russia

Gestartet Sep 16, 1988 von Baikonur Cosmodrome

Loading…

Nächste Überflüge (nächste 24 Stunden)

TLE

AktuellSource: Space-Track

Epoche: Sep 13, 2026, 12:44 UTC

1 19537U 88085G   26256.53105477 -.00000012  00000-0 -20166-4 0  9991
2 19537  65.0996 289.0937 5555783  74.1148 338.1881  4.36749727598657

Verfolge SL-12 R/B in Echtzeit mit AllMySat

Download on the App Store